When you browse on this site, cookies collect data to enhance your experience and personalize the content and advertising you see.
Visit our Privacy Policy to learn more. By continuing to use the site, you agree to this use of cookies and data.
  • en France
  • Liste des pays
  • À 7 jours
  • Température de l'eau
  • Carte météo
  • Widgets météo
  • user-avatar
    Se connecter

    Météo par heure à Edmonton

    Ce jour, 2 Avril, Jeudi

    Heure Température Précipitation Vent Pression Humidité
    00:00 -20°C° 0 mm 1 m/s 711 mmHg 99%
    01:00 -21°C° 0 mm 1 m/s 711 mmHg 99%
    02:00 -25°C° 0 mm 2 m/s 711 mmHg 99%
    03:00 -25°C° 0 mm 2 m/s 711 mmHg 99%
    04:00 -25°C° 0 mm 2 m/s 711 mmHg 99%
    05:00 -25°C° 0 mm 2 m/s 711 mmHg 98%
    06:00 -24°C° 0 mm 2 m/s 711 mmHg 97%
    07:00 -24°C° 0 mm 2 m/s 711 mmHg 96%
    08:00 -21°C° 0 mm 2 m/s 711 mmHg 92%
    09:00 -19°C° 0 mm 2 m/s 711 mmHg 89%
    10:00 -18°C° 0 mm 2 m/s 711 mmHg 86%
    11:00 -17°C° 0 mm 2 m/s 710 mmHg 83%
    12:00 -16°C° 0 mm 2 m/s 710 mmHg 81%
    13:00 -15°C° 0 mm 2 m/s 710 mmHg 79%
    14:00 -12°C° 0 mm 1 m/s 710 mmHg 79%
    15:00 -12°C° 0 mm 1 m/s 709 mmHg 79%
    16:00 -12°C° 0 mm 1 m/s 709 mmHg 79%
    17:00 -14°C° 0 mm 1 m/s 709 mmHg 83%
    18:00 -16°C° 0 mm 1 m/s 709 mmHg 86%
    19:00 -20°C° 0 mm 2 m/s 709 mmHg 89%
    20:00 -20°C° 0 mm 2 m/s 709 mmHg 90%
    21:00 -20°C° 0 mm 2 m/s 709 mmHg 90%
    22:00 -21°C° 0 mm 2 m/s 709 mmHg 91%
    23:00 -21°C° 0 mm 2 m/s 709 mmHg 91%

    Demain, 3 Avril, Vendredi

    Heure Température Précipitation Vent Pression Humidité
    00:00 -19°C° 0 mm 1 m/s 709 mmHg 90%
    01:00 -19°C° 0 mm 1 m/s 708 mmHg 90%
    02:00 -19°C° 0 mm 1 m/s 708 mmHg 89%
    03:00 -21°C° 0 mm 2 m/s 708 mmHg 89%
    04:00 -21°C° 0 mm 2 m/s 708 mmHg 89%
    05:00 -20°C° 0 mm 2 m/s 708 mmHg 89%
    06:00 -19°C° 0 mm 2 m/s 708 mmHg 89%
    07:00 -16°C° 0 mm 1 m/s 708 mmHg 89%
    08:00 -17°C° 0 mm 2 m/s 708 mmHg 88%
    09:00 -15°C° 0 mm 2 m/s 708 mmHg 88%
    10:00 -14°C° 0 mm 2 m/s 708 mmHg 87%
    11:00 -13°C° 0.1 mm 2 m/s 707 mmHg 87%
    12:00 -12°C° 0.1 mm 2 m/s 707 mmHg 87%
    13:00 -12°C° 0.1 mm 3 m/s 706 mmHg 88%
    14:00 -12°C° 0.1 mm 3 m/s 706 mmHg 88%
    15:00 -12°C° 0.1 mm 3 m/s 706 mmHg 89%
    16:00 -12°C° 0.1 mm 3 m/s 706 mmHg 90%
    17:00 -13°C° 0 mm 3 m/s 706 mmHg 92%
    18:00 -13°C° 0 mm 2 m/s 705 mmHg 94%
    19:00 -14°C° 0 mm 2 m/s 705 mmHg 95%
    20:00 -15°C° 0 mm 2 m/s 705 mmHg 95%
    21:00 -15°C° 0 mm 2 m/s 705 mmHg 95%
    22:00 -16°C° 0 mm 2 m/s 705 mmHg 95%
    23:00 -16°C° 0 mm 2 m/s 705 mmHg 95%

    Après-demain, 4 Avril, Samedi

    Heure Température Précipitation Vent Pression Humidité
    00:00 -15°C° 0 mm 1 m/s 704 mmHg 95%
    01:00 -15°C° 0 mm 1 m/s 704 mmHg 95%
    02:00 -16°C° 0 mm 1 m/s 704 mmHg 95%
    03:00 -16°C° 0 mm 1 m/s 703 mmHg 96%
    04:00 -17°C° 0 mm 1 m/s 703 mmHg 96%
    05:00 -16°C° 0 mm 1 m/s 703 mmHg 95%
    06:00 -15°C° 0 mm 1 m/s 704 mmHg 95%
    07:00 -16°C° 0 mm 2 m/s 704 mmHg 94%
    08:00 -15°C° 0 mm 2 m/s 704 mmHg 92%
    09:00 -13°C° 0 mm 2 m/s 704 mmHg 90%
    10:00 -12°C° 0 mm 2 m/s 703 mmHg 88%
    11:00 -10°C° 0 mm 2 m/s 703 mmHg 87%
    12:00 -9°C° 0 mm 2 m/s 703 mmHg 86%
    13:00 -8°C° 0 mm 2 m/s 703 mmHg 85%
    14:00 -9°C° 0 mm 3 m/s 702 mmHg 86%
    15:00 -9°C° 0 mm 3 m/s 702 mmHg 88%
    16:00 -9°C° 0 mm 3 m/s 702 mmHg 89%
    17:00 -12°C° 0 mm 3 m/s 702 mmHg 91%
    18:00 -14°C° 0 mm 3 m/s 702 mmHg 92%
    19:00 -16°C° 0 mm 3 m/s 702 mmHg 94%
    20:00 -17°C° 0 mm 3 m/s 702 mmHg 94%
    21:00 -17°C° 0 mm 3 m/s 703 mmHg 95%
    22:00 -18°C° 0 mm 3 m/s 703 mmHg 95%
    23:00 -18°C° 0 mm 3 m/s 703 mmHg 95%

    5 Avril, Dimanche

    Heure Température Précipitation Vent Pression Humidité
    00:00 -18°C° 0 mm 3 m/s 702 mmHg 95%
    01:00 -19°C° 0 mm 3 m/s 702 mmHg 96%
    02:00 -19°C° 0 mm 3 m/s 702 mmHg 95%
    03:00 -19°C° 0 mm 3 m/s 702 mmHg 95%
    04:00 -19°C° 0 mm 3 m/s 702 mmHg 95%
    05:00 -18°C° 0 mm 3 m/s 703 mmHg 93%
    06:00 -17°C° 0 mm 3 m/s 703 mmHg 92%
    07:00 -17°C° 0 mm 4 m/s 703 mmHg 91%
    08:00 -15°C° 0 mm 4 m/s 703 mmHg 90%
    09:00 -14°C° 0 mm 5 m/s 703 mmHg 88%
    10:00 -12°C° 0 mm 5 m/s 703 mmHg 87%
    11:00 -12°C° 0 mm 5 m/s 702 mmHg 87%
    12:00 -11°C° 0 mm 5 m/s 702 mmHg 87%
    13:00 -10°C° 0 mm 5 m/s 702 mmHg 87%
    14:00 -10°C° 0 mm 5 m/s 701 mmHg 88%
    15:00 -10°C° 0 mm 5 m/s 701 mmHg 88%
    16:00 -10°C° 0 mm 5 m/s 701 mmHg 88%
    17:00 -10°C° 0 mm 4 m/s 701 mmHg 90%
    18:00 -10°C° 0 mm 4 m/s 701 mmHg 91%
    19:00 -10°C° 0 mm 4 m/s 701 mmHg 93%
    20:00 -11°C° 0 mm 4 m/s 700 mmHg 93%
    21:00 -10°C° 0 mm 3 m/s 700 mmHg 93%
    22:00 -12°C° 0 mm 3 m/s 700 mmHg 94%
    23:00 -12°C° 0 mm 3 m/s 699 mmHg 94%

    6 Avril, Lundi

    Heure Température Précipitation Vent Pression Humidité
    00:00 -12°C° 0 mm 3 m/s 699 mmHg 95%
    01:00 -12°C° 0 mm 3 m/s 698 mmHg 95%
    02:00 -12°C° 0.1 mm 3 m/s 698 mmHg 95%
    03:00 -10°C° 0.1 mm 2 m/s 698 mmHg 95%
    04:00 -9°C° 0.1 mm 2 m/s 697 mmHg 96%
    05:00 -9°C° 0.1 mm 2 m/s 697 mmHg 95%
    06:00 -9°C° 0.1 mm 2 m/s 697 mmHg 95%
    07:00 -9°C° 0.1 mm 2 m/s 696 mmHg 95%
    08:00 -7°C° 0 mm 2 m/s 696 mmHg 93%
    09:00 -6°C° 0 mm 2 m/s 695 mmHg 92%
    10:00 -5°C° 0 mm 2 m/s 695 mmHg 90%
    11:00 -4°C° 0 mm 2 m/s 694 mmHg 92%
    12:00 -5°C° 0 mm 3 m/s 694 mmHg 93%
    13:00 -4°C° 0 mm 3 m/s 693 mmHg 95%
    14:00 -2°C° 0 mm 3 m/s 693 mmHg 94%
    15:00 -2°C° 0 mm 3 m/s 692 mmHg 94%
    16:00 -1°C° 0 mm 2 m/s 692 mmHg 93%
    17:00 -2°C° 0 mm 3 m/s 692 mmHg 93%
    18:00 -2°C° 0 mm 3 m/s 692 mmHg 92%
    19:00 -4°C° 0 mm 3 m/s 693 mmHg 92%
    20:00 -4°C° 0.3 mm 3 m/s 693 mmHg 92%
    21:00 -2°C° 0.3 mm 3 m/s 693 mmHg 92%
    22:00 -2°C° 0.3 mm 3 m/s 693 mmHg 91%
    23:00 -3°C° 0.5 mm 4 m/s 693 mmHg 93%

    7 Avril, Mardi

    Heure Température Précipitation Vent Pression Humidité
    00:00 -3°C° 0.5 mm 4 m/s 693 mmHg 94%
    01:00 -4°C° 0.5 mm 5 m/s 693 mmHg 95%
    02:00 -5°C° 0.1 mm 5 m/s 694 mmHg 90%
    03:00 -6°C° 0.1 mm 6 m/s 695 mmHg 84%
    04:00 -8°C° 0.1 mm 6 m/s 695 mmHg 79%
    05:00 -8°C° 0 mm 7 m/s 696 mmHg 78%
    06:00 -8°C° 0 mm 8 m/s 696 mmHg 77%
    07:00 -10°C° 0 mm 8 m/s 697 mmHg 76%
    08:00 -8°C° 0 mm 8 m/s 697 mmHg 75%
    09:00 -8°C° 0 mm 9 m/s 698 mmHg 74%
    10:00 -6°C° 0 mm 9 m/s 698 mmHg 73%
    11:00 -6°C° 0 mm 9 m/s 699 mmHg 73%
    12:00 -5°C° 0 mm 9 m/s 699 mmHg 73%
    13:00 -5°C° 0 mm 9 m/s 700 mmHg 73%
    14:00 -5°C° 0 mm 8 m/s 700 mmHg 74%
    15:00 -4°C° 0 mm 7 m/s 701 mmHg 75%
    16:00 -4°C° 0 mm 7 m/s 701 mmHg 77%
    17:00 -6°C° 0 mm 6 m/s 702 mmHg 78%
    18:00 -7°C° 0 mm 5 m/s 702 mmHg 80%
    19:00 -8°C° 0 mm 4 m/s 703 mmHg 81%
    20:00 -8°C° 0 mm 4 m/s 704 mmHg 81%
    21:00 -9°C° 0 mm 4 m/s 704 mmHg 81%
    22:00 -9°C° 0 mm 4 m/s 705 mmHg 81%
    23:00 -9°C° 0 mm 4 m/s 705 mmHg 83%
    Voir plus